[[{"header":{"parameterUnit":"m.s-1","parameterCategory":2,"la1":30.2991,"la2":30.254,"lo1":-89.0895,"lo2":-89.0444,"dy":0.0017,"dx":0.0017,"nx":28,"ny":28,"refTime":"2025-04-15T21:00:00:Z","depth":"0","parameterNumber":2,"parameterNumberName":"U-component_of_CURRENTS"},"data":[0,0,0,0,0,0,0,0,0,0,0,0,0,0,0,0,0,0,0,0,0,0,0,0,0,0,0,0,0,0,0,0,0,0,0,0,0,0,0,0,0,0,0,0,0,0,0,0,0,0,0,0,0,0,0,0,0,0,0.2567,0.2567,0,0.261,0.2611,0.2611,0.2619,0.2619,0.2619,0.2618,0.2617,0.2617,0.2617,0,0,0,0,0,0,0,0,0,0,0,0,0,0.2546,0.2546,0.2567,0.2567,0.2568,0.261,0.2611,0.2611,0.2619,0.2619,0.2619,0.2618,0.2617,0.2617,0.2617,0,0,0,0,0,0,0,0,0,0,0,0,0,0.2568,0.2546,0.2567,0.2578,0.258,0.261,0.2611,0.2611,0.2619,0.2619,0.2619,0.2618,0.2617,0.2617,0.2617,0.2625,0,0,0.2618,0.2618,0,0,0,0,0,0,0,0,0.2566,0.2568,0.2576,0.2577,0.2579,0.261,0.2603,0.2614,0.2619,0.2603,0.2618,0.2618,0.2611,0.2612,0.262,0.2625,0.2625,0.2618,0.2618,0.2618,0.2618,0,0,0,0,0,0,0,0.2565,0.2567,0.2583,0.2577,0.2579,0.26,0.2602,0.2605,0.2607,0.2604,0.2605,0.2612,0.2612,0.262,0.262,0.2625,0.2618,0.2618,0.2618,0.2618,0.2655,0.2656,0,0,0,0,0,0,0.2559,0.2565,0.2581,0.2584,0.2573,0.2601,0.2603,0.2599,0.2608,0.2609,0.2613,0.2613,0.2619,0.2619,0.262,0.2675,0.2618,0.2618,0.2618,0.2654,0.2655,0.2656,0,0,0,0,0,0,0.2559,0.256,0.258,0.2577,0.2581,0.2601,0.2597,0.26,0.2609,0.2615,0.2615,0.2618,0.2619,0.2619,0.2645,0.2673,0.2618,0.2619,0.2653,0.2655,0.2656,0.2756,0,0,0,0,0,0,0.2558,0.2559,0.2557,0.2576,0.2581,0.2606,0.2598,0.2602,0.2614,0.2614,0.2619,0.2619,0.2619,0.2645,0.2646,0.2672,0.2619,0.2652,0.2654,0.2655,0.2751,0.276,0.2768,0,0,0,0,0,0.2557,0.255,0.2556,0.2558,0.2576,0.2607,0.2611,0.2624,0.2615,0.2627,0.264,0.2619,0.2654,0.2647,0.2647,0.2674,0.2652,0.2654,0.2655,0.2747,0.2758,0.2767,0,0,0,0,0,0,0.2529,0.2551,0.2558,0.2555,0.2585,0.2609,0.2618,0.2624,0.2643,0.2643,0.264,0.2642,0.2667,0.2654,0.2646,0.2685,0.2645,0.2647,0.2715,0.2725,0.2733,0.2734,0.2619,0,0,0,0,0,0.2525,0.253,0.2559,0.2559,0.2574,0.2596,0.2609,0.2622,0.2641,0.2648,0.2657,0.2662,0.2675,0.2688,0.2689,0.2721,0.2738,0.2732,0.2741,0.2748,0.2747,0.2797,0.2811,0.2662,0.2662,0.2662,0,0,0.2511,0.2527,0.2527,0.2555,0.2576,0.261,0.2603,0.2628,0.2661,0.2645,0.2686,0.2686,0.2685,0.2724,0.2733,0.2721,0.2809,0.275,0.2757,0.2752,0.28,0.2815,0.2828,0.2664,0.2664,0.2663,0,0,0.25,0.2506,0.2517,0.2549,0.259,0.2615,0.2623,0.2658,0.2679,0.2721,0.2717,0.2738,0.2757,0.2776,0.2783,0.2832,0.2842,0.2827,0.2886,0.2936,0.2949,0.296,0.3051,0.307,0.2843,0.2843,0.2843,0,0.2484,0.2504,0.2526,0.2558,0.259,0.2618,0.2653,0.2685,0.2726,0.276,0.2742,0.2793,0.2782,0.2845,0.2862,0.2853,0.2898,0.2856,0.295,0.2961,0.2971,0.306,0.308,0.2848,0.2847,0.2847,0.2846,0,0.25,0.252,0.2532,0.2587,0.2625,0.2657,0.2714,0.2755,0.278,0.2817,0.2876,0.288,0.2915,0.2913,0.2903,0.2975,0.2993,0.295,0.2932,0.2993,0.3083,0.3102,0.2855,0.2853,0.2852,0.2851,0,0,0.2445,0.2526,0.2528,0.257,0.2645,0.2679,0.2751,0.2831,0.2886,0.2926,0.2997,0.3018,0.3027,0.3033,0.303,0.3067,0.3184,0.3048,0.3048,0.3152,0.3344,0.3391,0.3416,0.317,0.3172,0.3174,0.3398,0,0.2451,0.2511,0.2557,0.2626,0.2668,0.2737,0.2806,0.2886,0.2945,0.3023,0.3056,0.3104,0.3075,0.3093,0.3136,0.3155,0.323,0.313,0.3255,0.326,0.3305,0.3436,0.3261,0.3447,0.3415,0.3419,0.3421,0,0.2454,0.2499,0.2562,0.2667,0.2693,0.2745,0.287,0.2934,0.3055,0.3105,0.3179,0.3201,0.3279,0.3219,0.3345,0.3291,0.3332,0.3348,0.3356,0.337,0.334,0.3369,0.3482,0.3363,0.3449,0.3447,0.3445,0,0.2416,0.2503,0.2556,0.2591,0.2711,0.2765,0.2833,0.2957,0.3028,0.3153,0.3212,0.3313,0.3359,0.3422,0.3482,0.3421,0.3623,0.3539,0.3639,0.3644,0.3501,0.349,0.3516,0.3639,0.3639,0.3638,0.3637,0,0.2408,0.2449,0.2543,0.2576,0.2647,0.2747,0.2837,0.2927,0.3062,0.3163,0.3243,0.3346,0.3405,0.3525,0.3558,0.3699,0.3705,0.3692,0.3712,0.3537,0.3526,0.3418,0.3358,0.3646,0.3645,0.3643,0.3641,0,0.2356,0.2418,0.2477,0.2593,0.2629,0.2676,0.2816,0.2894,0.3027,0.3161,0.3203,0.3394,0.3569,0.3664,0.3792,0.3809,0.3817,0.3957,0.3781,0.3776,0.3719,0.3672,0.3654,0.3548,0.4098,0.4101,0.4103,0,0.2337,0.2363,0.2455,0.249,0.254,0.2624,0.2695,0.2847,0.2937,0.3202,0.327,0.3494,0.3646,0.3905,0.3973,0.4107,0.3946,0.4026,0.3854,0.3744,0.3705,0.3555,0.3452,0.3725,0.3724,0.3723,0.3722,0,0.2299,0.2325,0.2374,0.2444,0.2509,0.2571,0.2686,0.2751,0.2958,0.309,0.331,0.3457,0.3736,0.3822,0.4031,0.4071,0.3817,0.4015,0.3911,0.3451,0.3273,0.3169,0.3589,0.3714,0.3715,0.3716,0.3716,0.3717,0.2266,0.2282,0.2356,0.2417,0.2473,0.2538,0.2576,0.2713,0.2853,0.3057,0.3254,0.3428,0.3612,0.3878,0.3925,0.386,0.3827,0.3706,0.368,0.3557,0.337,0.3825,0.3959,0.3961,0.3963,0.3965,0.3966,0,0.2255,0.2295,0.2342,0.241,0.2442,0.2494,0.2593,0.2628,0.2752,0.2953,0.3119,0.3293,0.342,0.3548,0.3595,0.3498,0.3306,0.3404,0.308,0.3011,0.3424,0.3318,0.3302,0.3302,0.3302,0.3302,0.3302,0.3303,0.2265,0.2309,0.2339,0.2382,0.2415,0.2433,0.2468,0.2518,0.2624,0.2745,0.2833,0.2967,0.3185,0.334,0.3265,0.3186,0.2908,0.2821,0.2832,0.3044,0.3065,0.3085,0.2969,0.2881,0.288,0.2235,0.223,0.2227]},{"header":{"parameterUnit":"m.s-1","parameterCategory":2,"la1":30.2991,"la2":30.254,"lo1":-89.0895,"lo2":-89.0444,"dy":0.0017,"dx":0.0017,"nx":28,"ny":28,"refTime":"2025-04-15T21:00:00:Z","depth":"0","parameterNumber":3,"parameterNumberName":"V-component_of_CURRENTS"},"data":[0,0,0,0,0,0,0,0,0,0,0,0,0,0,0,0,0,0,0,0,0,0,0,0,0,0,0,0,0,0,0,0,0,0,0,0,0,0,0,0,0,0,0,0,0,0,0,0,0,0,0,0,0,0,0,0,0,0,-0.0536,-0.0538,0,-0.0668,-0.067,-0.0671,-0.0746,-0.0746,-0.0747,-0.0747,-0.099,-0.0996,-0.1002,0,0,0,0,0,0,0,0,0,0,0,0,0,-0.042,-0.0421,-0.0536,-0.0538,-0.054,-0.0668,-0.067,-0.0671,-0.0746,-0.0746,-0.0747,-0.0747,-0.0988,-0.0995,-0.1002,0,0,0,0,0,0,0,0,0,0,0,0,0,-0.0502,-0.0421,-0.0536,-0.0593,-0.06,-0.0668,-0.067,-0.0672,-0.0746,-0.0746,-0.0747,-0.0747,-0.0985,-0.0994,-0.1003,-0.105,0,0,-0.1032,-0.1036,0,0,0,0,0,0,0,0,-0.0497,-0.0506,-0.0583,-0.0589,-0.0597,-0.0692,-0.0718,-0.0804,-0.0746,-0.0689,-0.0747,-0.0748,-0.0901,-0.0917,-0.0938,-0.1061,-0.1072,-0.1032,-0.1038,-0.1042,-0.1045,0,0,0,0,0,0,0,-0.0491,-0.0501,-0.0588,-0.0585,-0.0593,-0.0636,-0.0648,-0.0734,-0.0792,-0.0694,-0.07,-0.0716,-0.0905,-0.0928,-0.0944,-0.1075,-0.1032,-0.104,-0.1046,-0.105,-0.1293,-0.1293,0,0,0,0,0,0,-0.0472,-0.0495,-0.0583,-0.0592,-0.0548,-0.0638,-0.0651,-0.066,-0.0789,-0.0808,-0.0716,-0.0719,-0.0912,-0.0933,-0.0953,-0.1044,-0.1042,-0.105,-0.1056,-0.1292,-0.1293,-0.1294,0,0,0,0,0,0,-0.0469,-0.0479,-0.0578,-0.0548,-0.0563,-0.0639,-0.0649,-0.0662,-0.0687,-0.0804,-0.0825,-0.0727,-0.0914,-0.094,-0.103,-0.1053,-0.1055,-0.1063,-0.1291,-0.1292,-0.1293,-0.1208,0,0,0,0,0,0,-0.0465,-0.0476,-0.0478,-0.0546,-0.0564,-0.062,-0.0649,-0.0665,-0.0697,-0.0703,-0.0821,-0.0844,-0.0916,-0.1015,-0.1039,-0.1066,-0.107,-0.1289,-0.1291,-0.1293,-0.121,-0.1207,-0.1204,0,0,0,0,0,-0.046,-0.0461,-0.0477,-0.0488,-0.0563,-0.0621,-0.0634,-0.0689,-0.0696,-0.0711,-0.0785,-0.084,-0.1044,-0.1023,-0.1051,-0.1081,-0.1289,-0.1291,-0.1293,-0.1211,-0.1207,-0.1204,0,0,0,0,0,0,-0.0407,-0.0471,-0.0489,-0.0507,-0.056,-0.0634,-0.0651,-0.0681,-0.0748,-0.0751,-0.0851,-0.088,-0.0969,-0.1034,-0.1009,-0.1157,-0.1176,-0.1184,-0.1105,-0.1103,-0.1099,-0.1038,-0.1078,0,0,0,0,0,-0.0395,-0.0413,-0.0479,-0.0493,-0.0515,-0.0577,-0.0606,-0.064,-0.0707,-0.0735,-0.0816,-0.0907,-0.0999,-0.1054,-0.1141,-0.122,-0.1224,-0.1259,-0.1256,-0.1253,-0.1222,-0.126,-0.1256,-0.1301,-0.1301,-0.1301,0,0,-0.0378,-0.0415,-0.0425,-0.0484,-0.0524,-0.0548,-0.0596,-0.0632,-0.0655,-0.0754,-0.0811,-0.09,-0.1016,-0.1104,-0.1151,-0.1162,-0.1236,-0.1255,-0.1251,-0.1222,-0.1261,-0.1256,-0.1252,-0.1302,-0.1302,-0.1302,0,0,-0.0354,-0.0383,-0.0392,-0.0428,-0.0485,-0.0524,-0.0529,-0.06,-0.0638,-0.0702,-0.0783,-0.0866,-0.1005,-0.1088,-0.1149,-0.118,-0.1216,-0.1228,-0.117,-0.1207,-0.1203,-0.1199,-0.1158,-0.1151,-0.123,-0.123,-0.123,0,-0.0329,-0.0346,-0.0404,-0.0418,-0.0432,-0.0504,-0.0504,-0.0559,-0.065,-0.0676,-0.0709,-0.0885,-0.099,-0.1089,-0.1108,-0.1171,-0.117,-0.1172,-0.1198,-0.1195,-0.1192,-0.1152,-0.1146,-0.1226,-0.1226,-0.1227,-0.1227,0,-0.0319,-0.0324,-0.0329,-0.0364,-0.0389,-0.0403,-0.0472,-0.0507,-0.0552,-0.0607,-0.07,-0.083,-0.0923,-0.0993,-0.1066,-0.112,-0.1114,-0.1182,-0.1193,-0.1182,-0.1141,-0.1135,-0.122,-0.1222,-0.1223,-0.1224,0,0,-0.0265,-0.0311,-0.0307,-0.0296,-0.0353,-0.0363,-0.0401,-0.0451,-0.0445,-0.0564,-0.057,-0.0755,-0.0805,-0.0876,-0.0987,-0.1038,-0.1026,-0.1097,-0.11,-0.1027,-0.1044,-0.099,-0.0978,-0.1104,-0.1103,-0.1103,-0.1007,0,-0.023,-0.0227,-0.0261,-0.0234,-0.023,-0.0284,-0.0299,-0.0352,-0.0405,-0.0434,-0.0578,-0.0636,-0.0771,-0.0803,-0.0881,-0.1002,-0.1015,-0.1041,-0.1091,-0.109,-0.1022,-0.0973,-0.0939,-0.0847,-0.1002,-0.1001,-0.1,0,-0.0201,-0.0197,-0.0169,-0.0147,-0.0145,-0.0135,-0.013,-0.0153,-0.0229,-0.0273,-0.0359,-0.0455,-0.057,-0.0667,-0.0823,-0.0834,-0.0911,-0.0994,-0.0994,-0.0964,-0.1027,-0.0897,-0.0832,-0.1024,-0.0992,-0.0993,-0.0994,0,-0.0126,-0.0118,-0.0082,-0.0081,-0.0084,-0.0061,-0.0054,-0.0097,-0.0083,-0.0153,-0.014,-0.03,-0.034,-0.0502,-0.0686,-0.0749,-0.081,-0.0922,-0.0923,-0.0917,-0.0905,-0.0899,-0.1008,-0.0972,-0.0973,-0.0973,-0.0973,0,-0.0073,-0.0035,-0.0035,-0.0011,0.0068,0.0038,0.0121,0.0088,0.0089,0.0146,-0.0036,-0.0008,-0.0302,-0.0388,-0.0586,-0.0708,-0.0727,-0.0866,-0.089,-0.0871,-0.0864,-0.1047,-0.1167,-0.0969,-0.097,-0.0971,-0.0971,0,0.0,-0.0012,0.0046,0.0077,0.0102,0.0165,0.0249,0.0309,0.0281,0.0361,0.0353,0.0233,0.0128,-0.0126,-0.034,-0.0529,-0.0765,-0.0716,-0.063,-0.0647,-0.0856,-0.0971,-0.1045,-0.1101,-0.0701,-0.0699,-0.0697,0,0.0036,0.0065,0.013,0.0194,0.0221,0.0312,0.0385,0.0395,0.0476,0.053,0.059,0.0526,0.0512,0.0227,-0.0109,-0.0376,-0.0617,-0.0528,-0.0666,-0.0817,-0.0965,-0.1059,-0.111,-0.0598,-0.0596,-0.0594,-0.0593,0,0.012,0.0138,0.019,0.0316,0.0412,0.0524,0.064,0.0731,0.0779,0.0862,0.0984,0.0993,0.075,0.0502,0.0125,-0.0111,-0.0644,-0.0495,-0.0708,-0.0913,-0.0967,-0.1049,-0.0667,-0.0576,-0.0577,-0.0579,-0.058,-0.058,0.0198,0.0257,0.0333,0.0457,0.0575,0.0735,0.084,0.0985,0.115,0.1304,0.1312,0.1369,0.0979,0.0474,0.0157,-0.0438,-0.047,-0.0655,-0.0775,-0.0851,-0.0933,-0.0459,-0.038,-0.0381,-0.0381,-0.0381,-0.0382,0,0.0295,0.0359,0.048,0.0628,0.0772,0.0809,0.101,0.1127,0.1345,0.1521,0.1646,0.1509,0.1048,0.0489,-0.0276,-0.0671,-0.0863,-0.0918,-0.1094,-0.1132,-0.0754,-0.0782,-0.072,-0.0719,-0.0719,-0.0719,-0.0719,-0.0719,0.0357,0.0473,0.0529,0.077,0.0881,0.1067,0.1178,0.136,0.1513,0.1728,0.1785,0.18,0.1349,0.0059,-0.085,-0.1066,-0.1382,-0.1405,-0.1558,-0.138,-0.1367,-0.1356,-0.1414,-0.1484,-0.1485,-0.1887,-0.1892,-0.1895]}],[{"header":{"parameterUnit":"m.s-1","parameterCategory":2,"la1":30.2991,"la2":30.254,"lo1":-89.0895,"lo2":-89.0444,"dy":0.0017,"dx":0.0017,"nx":28,"ny":28,"refTime":"2025-04-15T21:00:00:Z","depth":"2","parameterNumber":2,"parameterNumberName":"U-component_of_CURRENTS"},"data":[0,0,0,0,0,0,0,0,0,0,0,0,0,0,0,0,0,0,0,0,0,0,0,0,0,0,0,0,0,0,0,0,0,0,0,0,0,0,0,0,0,0,0,0,0,0,0,0,0,0,0,0,0,0,0,0,0,0,0.221,0.2211,0,0.2287,0.2288,0.2288,0.2313,0.2313,0.2313,0.2313,0.2447,0.245,0.2454,0,0,0,0,0,0,0,0,0,0,0,0,0,0.2151,0.2151,0.221,0.2211,0.2213,0.2287,0.2288,0.2289,0.2313,0.2313,0.2313,0.2313,0.2446,0.245,0.2454,0,0,0,0,0,0,0,0,0,0,0,0,0,0.2194,0.2151,0.221,0.2236,0.2239,0.2287,0.2288,0.2289,0.2313,0.2313,0.2313,0.2313,0.2444,0.2449,0.2455,0.249,0,0,0.2471,0.2474,0,0,0,0,0,0,0,0,0.2191,0.2195,0.2231,0.2234,0.2238,0.2293,0.2316,0.236,0.2313,0.2282,0.2313,0.2313,0.2403,0.2412,0.2421,0.2496,0.2502,0.2472,0.2475,0.2478,0.2479,0,0,0,0,0,0,0,0.2188,0.2193,0.2237,0.2232,0.2237,0.2267,0.2272,0.2324,0.2341,0.2285,0.2287,0.2301,0.2405,0.2416,0.2425,0.2504,0.2472,0.2477,0.248,0.2482,0.2677,0.2679,0,0,0,0,0,0,0.2181,0.2189,0.2235,0.224,0.2218,0.2268,0.2274,0.2273,0.2339,0.2349,0.2301,0.2302,0.2406,0.2418,0.243,0.2545,0.2477,0.2483,0.2486,0.2675,0.2678,0.268,0,0,0,0,0,0,0.218,0.2184,0.2232,0.222,0.2229,0.2269,0.2268,0.2275,0.2291,0.2351,0.2362,0.2312,0.2407,0.2422,0.2485,0.2547,0.2485,0.249,0.2673,0.2676,0.2679,0.2731,0,0,0,0,0,0,0.2177,0.2182,0.2189,0.2219,0.2229,0.2265,0.2269,0.2276,0.2301,0.2303,0.2365,0.2376,0.2408,0.2477,0.249,0.2554,0.2494,0.2671,0.2674,0.2678,0.2727,0.2735,0.2742,0,0,0,0,0,0.2174,0.2179,0.2188,0.2195,0.2233,0.2266,0.2274,0.2301,0.2302,0.2314,0.2356,0.2375,0.251,0.2482,0.2498,0.2564,0.2669,0.2673,0.2677,0.2723,0.2733,0.2742,0,0,0,0,0,0,0.2151,0.2184,0.2194,0.2206,0.2238,0.2272,0.229,0.2303,0.2343,0.2353,0.2393,0.2408,0.2483,0.2513,0.2481,0.263,0.2596,0.2604,0.2626,0.2636,0.2643,0.2608,0.2499,0,0,0,0,0,0.2151,0.2166,0.2198,0.2212,0.2225,0.2257,0.2276,0.2298,0.2335,0.2351,0.2393,0.2451,0.2513,0.2562,0.2605,0.2692,0.2706,0.2747,0.2755,0.2761,0.2743,0.2811,0.2823,0.2694,0.2694,0.2694,0,0,0.2143,0.2168,0.2174,0.221,0.2234,0.2267,0.2267,0.2302,0.234,0.2364,0.2425,0.2467,0.2534,0.2623,0.2664,0.2662,0.2811,0.2767,0.2772,0.275,0.2817,0.2829,0.284,0.2697,0.2696,0.2696,0,0,0.2143,0.2158,0.2173,0.2206,0.2254,0.228,0.2289,0.2331,0.2358,0.2419,0.2453,0.2521,0.2612,0.2679,0.2725,0.2802,0.2832,0.2836,0.2876,0.2944,0.2955,0.2964,0.3019,0.3033,0.2864,0.2864,0.2864,0,0.2132,0.2161,0.2184,0.2218,0.225,0.2284,0.2316,0.2354,0.2415,0.2458,0.2444,0.259,0.2637,0.2769,0.2794,0.2822,0.2856,0.2838,0.2953,0.2963,0.2971,0.3026,0.304,0.2867,0.2867,0.2866,0.2866,0,0.2159,0.2182,0.2195,0.225,0.2286,0.2321,0.2376,0.2432,0.2466,0.2507,0.2611,0.2667,0.276,0.2802,0.2821,0.2936,0.2939,0.2936,0.2925,0.2987,0.3041,0.3055,0.2871,0.287,0.2869,0.2869,0,0,0.2117,0.2196,0.2199,0.2234,0.2309,0.234,0.2425,0.251,0.2583,0.2634,0.2718,0.2817,0.284,0.2889,0.2941,0.3,0.3097,0.2999,0.3001,0.3045,0.3248,0.3178,0.3186,0.3123,0.3125,0.3127,0.3268,0,0.2126,0.2185,0.223,0.2293,0.2324,0.2404,0.2484,0.2575,0.2646,0.2737,0.2807,0.289,0.2881,0.294,0.2997,0.3075,0.3133,0.3058,0.3186,0.3189,0.3112,0.32,0.2922,0.3017,0.3281,0.3284,0.3285,0,0.2131,0.2177,0.2231,0.2331,0.2354,0.2406,0.2553,0.2627,0.2771,0.2839,0.2932,0.2968,0.3083,0.3037,0.3193,0.3152,0.3189,0.3227,0.3235,0.315,0.3144,0.2994,0.3033,0.3309,0.3307,0.3305,0.3304,0,0.2094,0.2171,0.2216,0.225,0.2373,0.2433,0.2504,0.2653,0.2741,0.2891,0.2963,0.3086,0.3157,0.3224,0.3288,0.326,0.3427,0.3409,0.3379,0.3375,0.3149,0.3121,0.3485,0.3485,0.3484,0.3484,0.3483,0,0.2087,0.2122,0.2201,0.2239,0.232,0.2404,0.2516,0.2636,0.2785,0.2893,0.299,0.3089,0.3202,0.3297,0.3334,0.3409,0.3477,0.3389,0.341,0.3162,0.3135,0.3381,0.3367,0.3489,0.3488,0.3487,0.3486,0,0.2035,0.2094,0.2148,0.2262,0.2304,0.2353,0.2506,0.2597,0.275,0.2891,0.2936,0.3125,0.3262,0.335,0.3488,0.3476,0.3547,0.3543,0.3237,0.3218,0.3439,0.3426,0.3544,0.3543,0.3542,0.3541,0.354,0,0.2007,0.2031,0.2137,0.218,0.2229,0.2317,0.24,0.2568,0.2655,0.2906,0.296,0.3139,0.3228,0.3406,0.3424,0.3488,0.3555,0.3275,0.3154,0.3438,0.3448,0.3437,0.3426,0.2893,0.2887,0.2882,0.2878,0,0.1962,0.2,0.2056,0.2142,0.2213,0.2292,0.24,0.246,0.2661,0.2781,0.2948,0.3031,0.3181,0.3127,0.3207,0.3206,0.3243,0.3178,0.3581,0.2913,0.2833,0.284,0.2849,0.2835,0.2839,0.2842,0.2845,0.2846,0.1923,0.1947,0.2037,0.2111,0.218,0.2253,0.2284,0.2383,0.25,0.2614,0.2783,0.2816,0.2878,0.2847,0.2814,0.2815,0.3023,0.2912,0.2923,0.2941,0.2833,0.2754,0.2721,0.2725,0.2728,0.273,0.2733,0,0.1919,0.1971,0.2016,0.2111,0.2146,0.2212,0.2286,0.2274,0.2326,0.2423,0.2497,0.2332,0.2305,0.2392,0.2309,0.2347,0.2287,0.2284,0.2172,0.2218,0.2259,0.2111,0.1811,0.1808,0.1805,0.1802,0,0,0.1936,0.1999,0.2025,0.2075,0.2111,0.2116,0.2124,0.2086,0.2103,0.2042,0.2025,0.215,0.2289,0.1988,0.1985,0.1884,0.2028,0.1821,0.2563,0.2474,0.251,0.263,0.2457,0,0,0,0,0]},{"header":{"parameterUnit":"m.s-1","parameterCategory":2,"la1":30.2991,"la2":30.254,"lo1":-89.0895,"lo2":-89.0444,"dy":0.0017,"dx":0.0017,"nx":28,"ny":28,"refTime":"2025-04-15T21:00:00:Z","depth":"2","parameterNumber":3,"parameterNumberName":"V-component_of_CURRENTS"},"data":[0,0,0,0,0,0,0,0,0,0,0,0,0,0,0,0,0,0,0,0,0,0,0,0,0,0,0,0,0,0,0,0,0,0,0,0,0,0,0,0,0,0,0,0,0,0,0,0,0,0,0,0,0,0,0,0,0,0,-0.0178,-0.018,0,-0.025,-0.025,-0.0251,-0.0306,-0.0307,-0.0308,-0.0309,-0.0457,-0.046,-0.0462,0,0,0,0,0,0,0,0,0,0,0,0,0,-0.0078,-0.0079,-0.0178,-0.018,-0.0181,-0.025,-0.025,-0.0251,-0.0306,-0.0307,-0.0309,-0.031,-0.0456,-0.0459,-0.0463,0,0,0,0,0,0,0,0,0,0,0,0,0,-0.0127,-0.0079,-0.0178,-0.0221,-0.0226,-0.025,-0.025,-0.0251,-0.0306,-0.0307,-0.0309,-0.031,-0.0455,-0.0459,-0.0463,-0.046,0,0,-0.0477,-0.0479,0,0,0,0,0,0,0,0,-0.0125,-0.013,-0.0213,-0.0218,-0.0224,-0.0275,-0.0269,-0.0326,-0.0305,-0.027,-0.0309,-0.0311,-0.0405,-0.0414,-0.0415,-0.0467,-0.0473,-0.0477,-0.048,-0.0482,-0.0483,0,0,0,0,0,0,0,-0.0121,-0.0128,-0.0201,-0.0215,-0.0221,-0.0233,-0.0241,-0.0279,-0.0325,-0.0273,-0.0279,-0.0294,-0.0408,-0.0411,-0.042,-0.0476,-0.0477,-0.0481,-0.0484,-0.0486,-0.0474,-0.0472,0,0,0,0,0,0,-0.0122,-0.0124,-0.0199,-0.0204,-0.0183,-0.0234,-0.0243,-0.0253,-0.0324,-0.0337,-0.0293,-0.0297,-0.0402,-0.0414,-0.0425,-0.0435,-0.0482,-0.0486,-0.0489,-0.0477,-0.0474,-0.0471,0,0,0,0,0,0,-0.0119,-0.0127,-0.0196,-0.017,-0.0181,-0.0234,-0.0245,-0.0254,-0.0267,-0.0339,-0.0353,-0.0299,-0.0404,-0.0419,-0.0428,-0.0441,-0.0488,-0.0492,-0.0481,-0.0476,-0.0472,-0.0449,0,0,0,0,0,0,-0.0116,-0.0126,-0.0131,-0.017,-0.0182,-0.0202,-0.0244,-0.0254,-0.0276,-0.0282,-0.0349,-0.0363,-0.0406,-0.042,-0.0432,-0.0448,-0.0496,-0.0485,-0.0479,-0.0474,-0.0453,-0.0444,-0.0436,0,0,0,0,0,-0.0112,-0.0114,-0.013,-0.014,-0.0188,-0.0202,-0.0207,-0.0248,-0.0275,-0.0267,-0.0293,-0.0362,-0.0394,-0.0421,-0.0436,-0.0454,-0.0487,-0.048,-0.0474,-0.0457,-0.0446,-0.0436,0,0,0,0,0,0,-0.0072,-0.0122,-0.014,-0.0158,-0.0175,-0.0213,-0.0221,-0.0244,-0.0258,-0.0273,-0.033,-0.0344,-0.0354,-0.0383,-0.0412,-0.0421,-0.045,-0.0445,-0.0432,-0.0422,-0.0413,-0.0428,-0.0499,0,0,0,0,0,-0.0066,-0.0082,-0.012,-0.0131,-0.0141,-0.0177,-0.0191,-0.0217,-0.024,-0.0249,-0.029,-0.0319,-0.0333,-0.0361,-0.0374,-0.0392,-0.0422,-0.0402,-0.0393,-0.0387,-0.04,-0.0438,-0.0437,-0.0449,-0.0449,-0.0449,0,0,-0.0055,-0.0085,-0.0095,-0.0124,-0.0145,-0.014,-0.0187,-0.0207,-0.0199,-0.0264,-0.0264,-0.0293,-0.0321,-0.0328,-0.0338,-0.0366,-0.0387,-0.0378,-0.0373,-0.039,-0.0431,-0.0431,-0.0431,-0.0444,-0.0445,-0.0446,0,0,-0.0032,-0.0065,-0.0065,-0.0075,-0.0108,-0.0122,-0.0125,-0.0158,-0.017,-0.0174,-0.0204,-0.0227,-0.0263,-0.0282,-0.0298,-0.0244,-0.0328,-0.0253,-0.0254,-0.029,-0.0292,-0.0293,-0.0299,-0.0301,-0.0266,-0.0266,-0.0266,0,-0.0015,-0.0023,-0.0063,-0.0059,-0.0056,-0.0108,-0.0085,-0.0101,-0.0129,-0.0135,-0.0168,-0.0202,-0.0239,-0.0246,-0.0235,-0.0235,-0.0264,-0.0305,-0.0287,-0.0289,-0.0291,-0.0297,-0.03,-0.0264,-0.0264,-0.0264,-0.0264,0,0.0007,0.0009,0.001,0.0004,0.0011,0.0012,-0.0006,-0.0022,-0.0053,-0.0071,-0.0089,-0.0131,-0.0156,-0.0174,-0.0207,-0.0231,-0.0245,-0.0266,-0.0332,-0.029,-0.0296,-0.03,-0.0261,-0.0262,-0.0262,-0.0263,0,0,0.0038,0.0028,0.0033,0.0055,0.0043,0.0058,0.0059,0.0058,0.0064,0.0005,0.0014,-0.0044,-0.0089,-0.0106,-0.0149,-0.0211,-0.025,-0.0265,-0.0268,-0.0303,-0.0324,-0.0318,-0.0322,-0.0293,-0.0294,-0.0295,-0.0312,0,0.0076,0.0107,0.0096,0.0154,0.0178,0.0144,0.0165,0.0152,0.0129,0.0124,0.0042,0.004,-0.0051,-0.0071,-0.0146,-0.0218,-0.0265,-0.0243,-0.0331,-0.0332,-0.0361,-0.0328,-0.0309,-0.0324,-0.0317,-0.0317,-0.0318,0,0.0111,0.0131,0.0186,0.0237,0.0247,0.0273,0.0297,0.0314,0.0277,0.0249,0.0191,0.0141,0.0056,-0.0019,-0.0165,-0.0158,-0.0239,-0.0311,-0.0313,-0.0329,-0.0335,-0.0365,-0.0332,-0.0325,-0.0325,-0.0324,-0.0324,0,0.0162,0.0208,0.026,0.0272,0.0307,0.0325,0.0351,0.0343,0.0377,0.0334,0.0334,0.0226,0.0197,0.0039,-0.0117,-0.0154,-0.0269,-0.0317,-0.0377,-0.0376,-0.0386,-0.0385,-0.0407,-0.0407,-0.0407,-0.0407,-0.0407,0,0.0206,0.0254,0.0285,0.0309,0.0387,0.04,0.0476,0.0457,0.0477,0.0541,0.0414,0.0429,0.0198,0.0106,-0.007,-0.0226,-0.0222,-0.0376,-0.0388,-0.0368,-0.0365,-0.0395,-0.0393,-0.0408,-0.0408,-0.0408,-0.0408,0,0.025,0.026,0.033,0.0381,0.0406,0.0467,0.056,0.0617,0.0607,0.0682,0.0671,0.0583,0.0449,0.0242,0.0031,-0.0123,-0.0294,-0.0337,-0.0283,-0.0291,-0.039,-0.0386,-0.043,-0.043,-0.043,-0.043,-0.043,0,0.0274,0.0307,0.0385,0.0443,0.0468,0.056,0.0629,0.0664,0.0743,0.0789,0.0839,0.0742,0.0686,0.0384,0.0089,-0.0188,-0.0232,-0.0328,-0.0404,-0.0389,-0.0397,-0.0393,-0.0389,-0.039,-0.0389,-0.0389,-0.0389,0,0.0329,0.0347,0.04,0.0513,0.0599,0.0713,0.082,0.0895,0.0965,0.1019,0.109,0.1048,0.077,0.0479,0.0109,-0.008,-0.0301,-0.0332,-0.0328,-0.0386,-0.0353,-0.036,-0.0357,-0.0387,-0.0387,-0.0387,-0.0387,-0.0387,0.0372,0.0423,0.0493,0.0608,0.0715,0.086,0.0963,0.1078,0.1206,0.1289,0.1262,0.1194,0.0871,0.0371,0.0065,-0.0254,-0.0265,-0.0399,-0.0399,-0.04,-0.0391,-0.0361,-0.0392,-0.0393,-0.0393,-0.0393,-0.0393,0,0.0435,0.0494,0.0598,0.0735,0.0872,0.0914,0.1095,0.1196,0.135,0.1386,0.1409,0.1108,0.0779,0.0429,-0.0051,-0.0344,-0.0378,-0.0423,-0.0416,-0.0416,-0.0416,-0.0409,-0.0415,-0.0415,-0.0416,-0.0417,0,0,0.0474,0.0572,0.0628,0.0849,0.0959,0.1143,0.1251,0.137,0.1432,0.1459,0.1406,0.1271,0.0859,0.0507,0.0111,-0.0149,-0.0212,-0.0195,-0.015,-0.0096,-0.0092,-0.0377,-0.0363,0,0,0,0,0]}],[{"header":{"parameterUnit":"m.s-1","parameterCategory":2,"la1":30.2991,"la2":30.254,"lo1":-89.0895,"lo2":-89.0444,"dy":0.0017,"dx":0.0017,"nx":28,"ny":28,"refTime":"2025-04-15T21:00:00:Z","depth":"4","parameterNumber":2,"parameterNumberName":"U-component_of_CURRENTS"},"data":[0,0,0,0,0,0,0,0,0,0,0,0,0,0,0,0,0,0,0,0,0,0,0,0,0,0,0,0,0,0,0,0,0,0,0,0,0,0,0,0,0,0,0,0,0,0,0,0,0,0,0,0,0,0,0,0,0,0,0.1203,0.1204,0,0.1242,0.1243,0.1243,0.1268,0.1268,0.1268,0.1269,0.1287,0.1287,0.1287,0,0,0,0,0,0,0,0,0,0,0,0,0,0.115,0.1151,0.1203,0.1204,0.1205,0.1242,0.1243,0.1243,0.1267,0.1268,0.1269,0.1269,0.1287,0.1287,0.1287,0,0,0,0,0,0,0,0,0,0,0,0,0,0.1177,0.1151,0.1203,0.1224,0.1226,0.1242,0.1243,0.1243,0.1267,0.1268,0.1269,0.1269,0.1287,0.1287,0.1287,0.1275,0,0,0.1287,0.1287,0,0,0,0,0,0,0,0,0.1175,0.1178,0.122,0.1222,0.1225,0.1253,0.1231,0.1254,0.1267,0.1249,0.1269,0.127,0.1275,0.1276,0.1278,0.1276,0.1277,0.1287,0.1288,0.1288,0.1288,0,0,0,0,0,0,0,0.1173,0.1177,0.1216,0.1221,0.1224,0.1232,0.1236,0.1235,0.1255,0.125,0.1253,0.1262,0.1276,0.1278,0.1279,0.1277,0.1287,0.1288,0.1288,0.1288,0.1371,0.1373,0,0,0,0,0,0,0.1174,0.1175,0.1214,0.1217,0.1205,0.1232,0.1237,0.1241,0.1256,0.126,0.1261,0.1263,0.1278,0.1279,0.128,0.1323,0.1288,0.1288,0.1288,0.1369,0.1372,0.1374,0,0,0,0,0,0,0.1173,0.1177,0.1213,0.12,0.1205,0.1233,0.1238,0.1242,0.1277,0.1265,0.1268,0.1297,0.1278,0.1279,0.1303,0.1322,0.1288,0.1288,0.1367,0.137,0.1373,0.1373,0,0,0,0,0,0,0.1171,0.1176,0.119,0.12,0.1206,0.1232,0.1237,0.1242,0.1281,0.1284,0.1295,0.1296,0.1279,0.1303,0.1303,0.1321,0.1288,0.1364,0.1368,0.1372,0.1371,0.1376,0.1381,0,0,0,0,0,0.1169,0.1179,0.119,0.1196,0.1221,0.1233,0.1236,0.1256,0.1283,0.1292,0.1309,0.1297,0.1329,0.1304,0.1304,0.1323,0.1362,0.1367,0.1372,0.1368,0.1375,0.1381,0,0,0,0,0,0,0.116,0.1183,0.1195,0.1212,0.1228,0.1238,0.1256,0.1278,0.13,0.1311,0.131,0.1311,0.1347,0.1343,0.1315,0.1366,0.135,0.1355,0.1348,0.1354,0.1359,0.1421,0.1288,0,0,0,0,0,0.1166,0.1178,0.12,0.1212,0.1228,0.1252,0.1268,0.128,0.1297,0.131,0.133,0.135,0.1362,0.1365,0.138,0.1392,0.1424,0.1414,0.1419,0.1423,0.1478,0.1527,0.1542,0.139,0.139,0.139,0,0,0.1166,0.1179,0.1188,0.1212,0.123,0.1253,0.1263,0.1288,0.1314,0.1306,0.1362,0.1374,0.1376,0.1395,0.1411,0.1392,0.1478,0.1429,0.1431,0.1486,0.1534,0.1549,0.1562,0.1393,0.1393,0.1392,0,0,0.1163,0.1187,0.12,0.122,0.1251,0.1265,0.1284,0.132,0.1347,0.1389,0.1396,0.1433,0.1454,0.1458,0.1459,0.1511,0.1513,0.1511,0.1568,0.1613,0.1626,0.1637,0.1666,0.1681,0.1499,0.1499,0.1499,0,0.1168,0.1186,0.1205,0.1227,0.125,0.128,0.1305,0.133,0.1374,0.14,0.1415,0.1498,0.1492,0.1521,0.1542,0.1522,0.1548,0.1527,0.1618,0.163,0.1643,0.167,0.1686,0.15,0.15,0.1499,0.1499,0,0.1168,0.12,0.1212,0.1251,0.1274,0.1298,0.1336,0.1379,0.1429,0.1456,0.1532,0.1551,0.1605,0.1597,0.1586,0.1662,0.1651,0.1622,0.1594,0.1658,0.1682,0.1699,0.15,0.15,0.15,0.15,0,0,0.1143,0.1202,0.1214,0.1242,0.1292,0.131,0.1363,0.1413,0.1464,0.1528,0.1609,0.1647,0.169,0.1703,0.1697,0.174,0.1822,0.1728,0.173,0.1745,0.1923,0.1773,0.1776,0.18,0.1804,0.1807,0.1894,0,0.1147,0.1191,0.122,0.1273,0.1304,0.1351,0.1398,0.1446,0.1505,0.1589,0.1641,0.1721,0.1713,0.1759,0.1801,0.1826,0.1874,0.1803,0.1875,0.1878,0.1725,0.1793,0.1819,0.1906,0.191,0.1913,0.1915,0,0.1144,0.1176,0.1228,0.1298,0.1318,0.1359,0.1447,0.1489,0.1587,0.1643,0.1737,0.1797,0.1892,0.1887,0.1986,0.194,0.1966,0.198,0.1982,0.187,0.176,0.1841,0.1945,0.1942,0.194,0.1938,0.1936,0,0.1115,0.1187,0.1231,0.1254,0.1333,0.1379,0.1428,0.1513,0.1562,0.1705,0.1778,0.1885,0.1968,0.2032,0.2079,0.2049,0.2183,0.2121,0.2014,0.2002,0.2108,0.2095,0.223,0.223,0.2229,0.2229,0.2229,0,0.1101,0.1141,0.1232,0.1254,0.1316,0.1378,0.1462,0.1521,0.1631,0.1697,0.1819,0.1903,0.2021,0.21,0.2125,0.2119,0.2215,0.2068,0.203,0.2101,0.2087,0.2117,0.2103,0.2232,0.2232,0.2231,0.223,0,0.1065,0.112,0.1174,0.127,0.1304,0.1352,0.147,0.1522,0.1638,0.1741,0.1806,0.1945,0.2041,0.2124,0.2223,0.2154,0.2177,0.2155,0.2246,0.2204,0.1956,0.1942,0.2042,0.2038,0.2034,0.2031,0.2029,0,0.1052,0.1079,0.1177,0.1209,0.126,0.1349,0.1401,0.1515,0.157,0.1744,0.1779,0.1936,0.202,0.203,0.2119,0.2157,0.2132,0.2124,0.2046,0.1993,0.1946,0.1936,0.1927,0.2023,0.2022,0.2021,0.202,0,0.102,0.1064,0.1103,0.1166,0.1226,0.1288,0.1377,0.141,0.1543,0.167,0.173,0.1795,0.1889,0.1947,0.1997,0.2016,0.2114,0.2086,0.2093,0.2019,0.1971,0.1925,0.192,0.2008,0.201,0.2011,0.2012,0,0.0998,0.1002,0.1053,0.1101,0.118,0.1205,0.1262,0.1329,0.1392,0.1573,0.1592,0.174,0.1867,0.1876,0.1919,0.1929,0.1894,0.1819,0.1839,0.1854,0.1751,0.166,0.1603,0,0,0,0,0,0.0956,0.0932,0.0979,0.1006,0.1092,0.1128,0.1233,0.1292,0.1433,0.1429,0.1502,0.1585,0.1649,0.172,0.1694,0.1841,0.1905,0.1801,0.183,0.1939,0.1953,0.1849,0,0,0,0,0,0,0.091,0.093,0.0936,0.0942,0.0954,0.101,0.1076,0.1158,0.1167,0.132,0.1364,0.1475,0.1565,0.1646,0.1658,0.1681,0.1662,0.1891,0.1886,0.1931,0.1944,0.1955,0.1853,0,0,0,0,0]},{"header":{"parameterUnit":"m.s-1","parameterCategory":2,"la1":30.2991,"la2":30.254,"lo1":-89.0895,"lo2":-89.0444,"dy":0.0017,"dx":0.0017,"nx":28,"ny":28,"refTime":"2025-04-15T21:00:00:Z","depth":"4","parameterNumber":3,"parameterNumberName":"V-component_of_CURRENTS"},"data":[0,0,0,0,0,0,0,0,0,0,0,0,0,0,0,0,0,0,0,0,0,0,0,0,0,0,0,0,0,0,0,0,0,0,0,0,0,0,0,0,0,0,0,0,0,0,0,0,0,0,0,0,0,0,0,0,0,0,0.0076,0.0076,0,0.0092,0.0092,0.0093,0.0102,0.0102,0.0102,0.0101,0.0184,0.0187,0.0189,0,0,0,0,0,0,0,0,0,0,0,0,0,0.0106,0.0106,0.0076,0.0076,0.0076,0.0092,0.0092,0.0093,0.0102,0.0102,0.0102,0.0101,0.0184,0.0187,0.019,0,0,0,0,0,0,0,0,0,0,0,0,0,0.0108,0.0105,0.0076,0.008,0.008,0.0091,0.0092,0.0093,0.0102,0.0102,0.0101,0.0101,0.0183,0.0186,0.019,0.0222,0,0,0.0201,0.0203,0,0,0,0,0,0,0,0,0.0108,0.0108,0.0079,0.0079,0.008,0.0091,0.0133,0.0138,0.0103,0.0098,0.0101,0.0101,0.0157,0.0163,0.0172,0.0226,0.023,0.0202,0.0204,0.0206,0.0207,0,0,0,0,0,0,0,0.0108,0.0107,0.0086,0.0079,0.0079,0.0098,0.0097,0.0134,0.0134,0.0098,0.0098,0.0094,0.0158,0.0168,0.0174,0.0231,0.0202,0.0205,0.0207,0.0209,0.0286,0.0285,0,0,0,0,0,0,0.0096,0.0107,0.0086,0.0086,0.0088,0.0097,0.0097,0.0091,0.0133,0.0137,0.0094,0.0094,0.0162,0.0169,0.0177,0.023,0.0206,0.0209,0.0211,0.0286,0.0286,0.0285,0,0,0,0,0,0,0.0096,0.0094,0.0085,0.0094,0.0094,0.0096,0.009,0.0092,0.0099,0.0128,0.0134,0.0099,0.0162,0.0172,0.0213,0.0233,0.0211,0.0214,0.0286,0.0286,0.0286,0.033,0,0,0,0,0,0,0.0097,0.0094,0.0093,0.0093,0.0092,0.0104,0.009,0.0092,0.0095,0.0095,0.0134,0.0141,0.0162,0.0207,0.0217,0.0238,0.0217,0.0286,0.0286,0.0286,0.0329,0.0331,0.0333,0,0,0,0,0,0.0098,0.0101,0.0093,0.009,0.0088,0.0104,0.0108,0.011,0.0095,0.0112,0.013,0.014,0.021,0.0211,0.0222,0.0245,0.0287,0.0286,0.0286,0.0328,0.0331,0.0333,0,0,0,0,0,0,0.0115,0.0101,0.0093,0.0091,0.01,0.0105,0.0114,0.011,0.0135,0.0134,0.0154,0.0164,0.0202,0.0211,0.0211,0.0259,0.0244,0.0245,0.0272,0.0275,0.0277,0.027,0.022,0,0,0,0,0,0.0115,0.0114,0.0108,0.011,0.011,0.011,0.0115,0.0119,0.0134,0.0143,0.0167,0.0186,0.0209,0.0232,0.0255,0.0297,0.0262,0.0309,0.0311,0.0313,0.0311,0.0273,0.0272,0.0284,0.0284,0.0284,0,0,0.0121,0.0114,0.0113,0.0113,0.0116,0.0134,0.0114,0.0126,0.0148,0.0151,0.0192,0.0201,0.0218,0.026,0.0277,0.0274,0.0287,0.0313,0.0315,0.0311,0.0272,0.0271,0.027,0.0284,0.0284,0.0284,0,0,0.014,0.0125,0.0134,0.0143,0.0147,0.0154,0.0155,0.0165,0.0175,0.0212,0.0209,0.0223,0.0273,0.0284,0.0296,0.032,0.0296,0.0327,0.0349,0.0313,0.0311,0.031,0.0249,0.0242,0.0335,0.0335,0.0335,0,0.0147,0.0155,0.0144,0.016,0.017,0.0161,0.0185,0.0199,0.0225,0.0239,0.0231,0.0266,0.0281,0.0314,0.0321,0.0328,0.0294,0.0345,0.0316,0.0314,0.0312,0.025,0.0242,0.0337,0.0337,0.0337,0.0336,0,0.0178,0.0186,0.0193,0.0209,0.0226,0.0244,0.0255,0.0278,0.0281,0.0289,0.0315,0.0321,0.0337,0.0341,0.0347,0.0346,0.032,0.032,0.0313,0.0314,0.0248,0.0238,0.034,0.0339,0.0339,0.0338,0,0,0.0185,0.0209,0.0213,0.0231,0.0252,0.0272,0.0308,0.034,0.036,0.037,0.0386,0.0407,0.0387,0.0395,0.039,0.0364,0.0314,0.0342,0.0339,0.0287,0.0214,0.0186,0.0172,0.0315,0.0314,0.0313,0.0169,0,0.0212,0.0251,0.026,0.0309,0.0329,0.0342,0.038,0.0407,0.042,0.0436,0.0418,0.0433,0.0415,0.0418,0.0388,0.0339,0.0293,0.0352,0.0215,0.021,0.0191,0.0162,0.031,0.0161,0.0159,0.0157,0.0156,0,0.0239,0.0262,0.031,0.0358,0.0368,0.0402,0.0454,0.0486,0.0502,0.0512,0.0507,0.0483,0.0454,0.0427,0.0325,0.0365,0.0288,0.0236,0.0229,0.0182,0.0165,0.0162,0.0138,0.014,0.0141,0.0142,0.0143,0,0.0251,0.0299,0.0341,0.0356,0.0407,0.0441,0.0473,0.0508,0.0539,0.0549,0.0556,0.0515,0.0486,0.0397,0.0287,0.0305,0.0152,0.016,0.0051,0.0047,0.0098,0.0101,0.0063,0.0063,0.0063,0.0064,0.0064,0,0.027,0.0304,0.0351,0.0373,0.0434,0.0462,0.0525,0.0553,0.0582,0.0612,0.0586,0.0577,0.0476,0.0381,0.0281,0.013,0.0138,0.0037,0.0009,0.0117,0.0124,0.0089,0.0095,0.0058,0.0059,0.006,0.0061,0,0.0272,0.0301,0.0351,0.0412,0.0439,0.048,0.056,0.0601,0.0627,0.0657,0.0657,0.0607,0.0485,0.0359,0.0198,0.0117,-0.0018,-0.0079,0.002,0.0002,-0.0103,-0.0094,-0.0217,-0.0219,-0.0221,-0.0223,-0.0224,0,0.0276,0.0301,0.0374,0.0415,0.0446,0.0516,0.0569,0.0621,0.0662,0.0672,0.0677,0.0572,0.0518,0.0264,0.0136,-0.0081,-0.0103,-0.018,-0.0121,-0.0116,-0.0132,-0.012,-0.0108,-0.0227,-0.0228,-0.0228,-0.0228,0,0.0282,0.0306,0.0346,0.0429,0.0492,0.0565,0.0636,0.0665,0.0715,0.0731,0.0686,0.0567,0.0417,0.0244,0.0067,-0.0078,-0.0124,-0.0199,-0.0196,-0.0142,-0.0129,-0.014,-0.0127,-0.0235,-0.0234,-0.0233,-0.0233,0,0.0283,0.031,0.0368,0.0449,0.0525,0.0596,0.0632,0.0674,0.0708,0.0715,0.0687,0.0549,0.0471,0.0241,0.0084,-0.0067,-0.0096,-0.0124,-0.0125,-0.012,-0.0036,-0.0003,-0.0108,0,0,0,0,0,0.0283,0.0327,0.0395,0.0478,0.0553,0.061,0.0678,0.0707,0.0741,0.0711,0.0705,0.0568,0.0339,0.0244,0.0083,0.0042,-0.0129,-0.0151,-0.0163,-0.027,-0.0263,-0.0182,0,0,0,0,0,0,0.0288,0.034,0.039,0.0495,0.0564,0.0649,0.0697,0.0715,0.07,0.0705,0.0581,0.0538,0.0308,0.0432,0.0085,0.0039,0.0011,-0.0253,-0.0256,-0.0275,-0.0268,-0.0262,-0.0176,0,0,0,0,0]}]]